Regional Weather Roundup
Issued by NWS

Home | Current Version | Previous Version | Graphics & Text | Print | Product List | Glossary On
Versions: 1 2 3 4 5 6 7 8 9 10 11 12 13 14 15 16 17 18 19 20 21 22 23 24 25 26 27 28 29 30 31 32 33 34 35 36 37 38 39 40 41 42 43 44 45 46 47 48 49 50
757
ASUS43 KBIS 290010
RWRND

NORTH DAKOTA REGIONAL WEATHER ROUNDUP
NATIONAL WEATHER SERVICE BISMARCK ND
700 PM CDT FRI APR 28 2017

NOTE: "FAIR" INDICATES FEW OR NO CLOUDS BELOW 12,000 FEET WITH NO
SIGNIFICANT WEATHER AND/OR OBSTRUCTIONS TO VISIBILITY.


NDZ001>003-009>011-017-290100-
NORTHWEST NORTH DAKOTA

CITY           SKY/WX    TMP DP  RH WIND       PRES   REMARKS
WILLISTON      FAIR      57  16  20 S3        30.09R
6HR MIN TEMP:  54; 6HR MAX TEMP:  59;

MINOT          FAIR      57  14  18 NW7       30.08R
MINOT AFB      SUNNY     56  16  21 NW6       30.07R
$$

NDZ018>021-031>035-040>046-290100-
SOUTHWEST NORTH DAKOTA

CITY           SKY/WX    TMP DP  RH WIND       PRES   REMARKS
BISMARCK       FAIR      56  11  16 NE3       30.10R
6HR MIN TEMP:  52; 6HR MAX TEMP:  58;

DICKINSON      FAIR      52  14  22 VRB5      30.07R
GARRISON         N/A     53  13  20 SW7       30.09R
6HR MIN TEMP:  49; 6HR MAX TEMP:  56;

HETTINGER ARPT SUNNY     52  19  27 E13       30.09R
$$

NDZ004>008-012>016-024-026-027-054-290100-
NORTHEAST NORTH DAKOTA

CITY           SKY/WX    TMP DP  RH WIND       PRES   REMARKS
GRAND FORKS    MOSUNNY   54  25  32 N13       30.06R
GRND FRKS AFB  SUNNY     51  17  26 N15       30.07R
DEVILS LAKE    FAIR      54  13  19 NW14      30.08R
$$

NDZ022-023-025-028>030-036>039-047>053-290100-
SOUTHEAST NORTH DAKOTA

CITY           SKY/WX    TMP DP  RH WIND       PRES   REMARKS
FARGO          SUNNY     53  23  31 N16       30.07R
6HR MIN TEMP:  47; 6HR MAX TEMP:  55;

JAMESTOWN      FAIR      53  17  24 N15       30.07R
$$





USA.gov is the U.S. government's official web portal to all federal, state and local government web resources and services.